Location: *
(46.4833°N, 7.6667°E)
Time: 09:20:35
(UTC+00:00)

STARLINK-1038 - Pass Details

Date: 27 February 2020
Orbit: 549 x 550 km, 53.0° (Epoch: 04 April)

Event Time Altitude Azimuth Distance (km) Brightness Sun altitude
Rises 18:17:11 0° 234° (SW) 2,707 8.1 -12.1°
Reaches altitude 10° 18:19:24 10° 232° (SW) 1,817 7.1 -12.4°
Maximum altitude 18:23:32 77° 147° (SSE) 567 3.5 -13.2°
Enters shadow 18:26:26 19° 63° (ENE) 1,345 5.1 -13.7°
